Location: Kuffner-Sternwarte
(48.2130°N, 16.2960°E)
Time: 06:18:58
(UTC+01:00)

COROT - Pass Details

Date: 29 March 2017
Orbit: 602 x 887 km, 90.0° (Epoch: 20 November)

Event Time Altitude Azimuth Distance (km) Brightness Sun altitude
Rises 02:28:28 0° 350° (N) 3,144 9.8 -34.9°
Reaches altitude 10° 02:31:01 10° 338° (NNW) 2,267 8.8 -34.7°
Enters shadow 02:32:13 16° 328° (NNW) 1,924 8.3 -34.6°
